When you browse on this site, cookies collect data to enhance your experience and personalize the content and advertising you see.
Visit our Privacy Policy to learn more. By continuing to use the site, you agree to this use of cookies and data.
  • In Lithuania
  • List of Countries
  • For 7 days
  • Water Temperature
  • Weather Map
  • Weather Widgets
  • user-avatar
    Login

    Hourly Weather Borowki

    Today, 22 August, Thursday

    Time Temperature Precipitation Wind Pressure Humidity
    00:00 +15°C° 0 mm 1 mps 765 mmHg 75%
    01:00 +15°C° 0 mm 2 mps 766 mmHg 76%
    02:00 +15°C° 0 mm 1 mps 766 mmHg 77%
    03:00 +14°C° 0 mm 1 mps 766 mmHg 78%
    04:00 +14°C° 0 mm 1 mps 765 mmHg 80%
    05:00 +15°C° 0 mm 1 mps 766 mmHg 78%
    06:00 +16°C° 0 mm 1 mps 766 mmHg 76%
    07:00 +17°C° 0 mm 2 mps 766 mmHg 74%
    08:00 +19°C° 0 mm 2 mps 766 mmHg 69%
    09:00 +20°C° 0 mm 2 mps 766 mmHg 63%
    10:00 +23°C° 0 mm 2 mps 766 mmHg 57%
    11:00 +23°C° 0 mm 2 mps 766 mmHg 53%
    12:00 +24°C° 0 mm 2 mps 766 mmHg 48%
    13:00 +25°C° 0 mm 2 mps 766 mmHg 44%
    14:00 +25°C° 0 mm 2 mps 765 mmHg 44%
    15:00 +25°C° 0 mm 2 mps 765 mmHg 44%
    16:00 +25°C° 0 mm 2 mps 765 mmHg 45%
    17:00 +24°C° 0 mm 2 mps 765 mmHg 50%
    18:00 +21°C° 0 mm 2 mps 765 mmHg 56%
    19:00 +20°C° 0 mm 2 mps 764 mmHg 62%
    20:00 +19°C° 0 mm 2 mps 765 mmHg 64%
    21:00 +18°C° 0 mm 2 mps 765 mmHg 67%
    22:00 +17°C° 0 mm 2 mps 765 mmHg 70%
    23:00 +17°C° 0 mm 2 mps 765 mmHg 71%

    Tomorrow, 23 August, Friday

    Time Temperature Precipitation Wind Pressure Humidity
    00:00 +16°C° 0 mm 2 mps 765 mmHg 72%
    01:00 +16°C° 0 mm 2 mps 765 mmHg 73%
    02:00 +16°C° 0 mm 2 mps 765 mmHg 74%
    03:00 +15°C° 0 mm 2 mps 765 mmHg 75%
    04:00 +15°C° 0 mm 2 mps 765 mmHg 75%
    05:00 +16°C° 0 mm 2 mps 765 mmHg 73%
    06:00 +17°C° 0 mm 2 mps 765 mmHg 70%
    07:00 +18°C° 0 mm 2 mps 765 mmHg 67%
    08:00 +20°C° 0 mm 2 mps 765 mmHg 62%
    09:00 +21°C° 0 mm 2 mps 765 mmHg 56%
    10:00 +24°C° 0 mm 2 mps 766 mmHg 50%
    11:00 +25°C° 0 mm 2 mps 765 mmHg 47%
    12:00 +26°C° 0 mm 2 mps 765 mmHg 44%
    13:00 +26°C° 0 mm 2 mps 764 mmHg 41%
    14:00 +27°C° 0 mm 2 mps 764 mmHg 40%
    15:00 +27°C° 0 mm 2 mps 764 mmHg 40%
    16:00 +27°C° 0 mm 2 mps 764 mmHg 40%
    17:00 +25°C° 0 mm 2 mps 764 mmHg 46%
    18:00 +24°C° 0 mm 2 mps 763 mmHg 51%
    19:00 +21°C° 0 mm 2 mps 763 mmHg 57%
    20:00 +20°C° 0 mm 2 mps 763 mmHg 59%
    21:00 +20°C° 0 mm 2 mps 764 mmHg 61%
    22:00 +19°C° 0 mm 2 mps 764 mmHg 63%
    23:00 +18°C° 0 mm 2 mps 764 mmHg 64%

    Day after tomorrow, 24 August, Saturday

    Time Temperature Precipitation Wind Pressure Humidity
    00:00 +18°C° 0 mm 2 mps 764 mmHg 66%
    01:00 +17°C° 0 mm 2 mps 764 mmHg 68%
    02:00 +17°C° 0 mm 2 mps 763 mmHg 69%
    03:00 +17°C° 0 mm 2 mps 763 mmHg 71%
    04:00 +16°C° 0 mm 2 mps 763 mmHg 73%
    05:00 +17°C° 0 mm 2 mps 763 mmHg 71%
    06:00 +18°C° 0 mm 2 mps 763 mmHg 69%
    07:00 +19°C° 0 mm 2 mps 763 mmHg 67%
    08:00 +21°C° 0 mm 2 mps 763 mmHg 61%
    09:00 +24°C° 0 mm 3 mps 763 mmHg 55%
    10:00 +26°C° 0 mm 3 mps 764 mmHg 49%
    11:00 +27°C° 0 mm 3 mps 763 mmHg 46%
    12:00 +27°C° 0 mm 3 mps 763 mmHg 42%
    13:00 +28°C° 0 mm 3 mps 763 mmHg 39%
    14:00 +28°C° 0 mm 3 mps 762 mmHg 39%
    15:00 +28°C° 0 mm 3 mps 762 mmHg 39%
    16:00 +28°C° 0 mm 3 mps 762 mmHg 40%
    17:00 +26°C° 0 mm 3 mps 762 mmHg 45%
    18:00 +25°C° 0 mm 3 mps 762 mmHg 51%
    19:00 +22°C° 0 mm 3 mps 762 mmHg 56%
    20:00 +21°C° 0 mm 3 mps 762 mmHg 58%
    21:00 +20°C° 0 mm 3 mps 762 mmHg 61%
    22:00 +19°C° 0 mm 3 mps 762 mmHg 63%
    23:00 +19°C° 0 mm 3 mps 762 mmHg 65%

    25 August, Sunday

    Time Temperature Precipitation Wind Pressure Humidity
    00:00 +19°C° 0 mm 3 mps 762 mmHg 67%
    01:00 +18°C° 0 mm 3 mps 762 mmHg 69%
    02:00 +18°C° 0 mm 4 mps 762 mmHg 70%
    03:00 +17°C° 0 mm 4 mps 762 mmHg 72%
    04:00 +17°C° 0 mm 4 mps 761 mmHg 73%
    05:00 +18°C° 0 mm 4 mps 761 mmHg 71%
    06:00 +19°C° 0 mm 4 mps 761 mmHg 68%
    07:00 +20°C° 0 mm 5 mps 761 mmHg 66%
    08:00 +22°C° 0 mm 5 mps 761 mmHg 60%
    09:00 +23°C° 0 mm 6 mps 761 mmHg 55%
    10:00 +26°C° 0 mm 6 mps 762 mmHg 49%
    11:00 +27°C° 0 mm 6 mps 761 mmHg 47%
    12:00 +28°C° 0 mm 6 mps 761 mmHg 45%
    13:00 +29°C° 0 mm 6 mps 761 mmHg 43%
    14:00 +29°C° 0 mm 6 mps 760 mmHg 43%
    15:00 +29°C° 0 mm 5 mps 760 mmHg 44%
    16:00 +29°C° 0 mm 5 mps 760 mmHg 44%
    17:00 +27°C° 0 mm 5 mps 760 mmHg 49%
    18:00 +26°C° 0 mm 4 mps 760 mmHg 54%
    19:00 +23°C° 0 mm 4 mps 760 mmHg 59%
    20:00 +23°C° 0 mm 4 mps 760 mmHg 61%
    21:00 +22°C° 0 mm 4 mps 760 mmHg 63%
    22:00 +21°C° 0 mm 4 mps 761 mmHg 65%
    23:00 +21°C° 0 mm 4 mps 761 mmHg 66%

    26 August, Monday

    Time Temperature Precipitation Wind Pressure Humidity
    00:00 +20°C° 0 mm 4 mps 760 mmHg 67%
    01:00 +20°C° 0 mm 4 mps 760 mmHg 68%
    02:00 +19°C° 0 mm 4 mps 760 mmHg 69%
    03:00 +19°C° 0 mm 4 mps 760 mmHg 70%
    04:00 +18°C° 0 mm 4 mps 760 mmHg 71%
    05:00 +19°C° 0 mm 4 mps 760 mmHg 70%
    06:00 +20°C° 0 mm 4 mps 760 mmHg 68%
    07:00 +20°C° 0 mm 4 mps 760 mmHg 67%
    08:00 +22°C° 0 mm 4 mps 760 mmHg 62%
    09:00 +25°C° 0 mm 5 mps 760 mmHg 57%
    10:00 +27°C° 0 mm 5 mps 760 mmHg 53%
    11:00 +28°C° 0 mm 5 mps 760 mmHg 50%
    12:00 +29°C° 0 mm 5 mps 760 mmHg 47%
    13:00 +30°C° 0 mm 5 mps 759 mmHg 44%
    14:00 +30°C° 0 mm 5 mps 759 mmHg 44%
    15:00 +30°C° 0 mm 4 mps 759 mmHg 45%
    16:00 +30°C° 0 mm 4 mps 758 mmHg 45%
    17:00 +28°C° 0 mm 4 mps 758 mmHg 51%
    18:00 +27°C° 0 mm 3 mps 758 mmHg 56%
    19:00 +25°C° 0 mm 3 mps 758 mmHg 62%
    20:00 +24°C° 0 mm 3 mps 758 mmHg 65%
    21:00 +22°C° 0 mm 3 mps 758 mmHg 67%
    22:00 +21°C° 0 mm 3 mps 759 mmHg 70%
    23:00 +21°C° 0 mm 3 mps 759 mmHg 72%

    27 August, Tuesday

    Time Temperature Precipitation Wind Pressure Humidity
    00:00 +20°C° 0 mm 3 mps 759 mmHg 74%
    01:00 +20°C° 0 mm 3 mps 758 mmHg 77%
    02:00 +19°C° 0 mm 3 mps 758 mmHg 78%
    03:00 +19°C° 0 mm 3 mps 758 mmHg 80%
    04:00 +18°C° 0 mm 3 mps 758 mmHg 81%
    05:00 +19°C° 0 mm 3 mps 758 mmHg 78%
    06:00 +20°C° 0 mm 4 mps 758 mmHg 75%
    07:00 +21°C° 0 mm 4 mps 758 mmHg 72%
    08:00 +23°C° 0 mm 4 mps 758 mmHg 66%
    09:00 +26°C° 0 mm 4 mps 758 mmHg 60%
    10:00 +28°C° 0 mm 4 mps 758 mmHg 54%
    11:00 +29°C° 0 mm 4 mps 758 mmHg 51%
    12:00 +30°C° 0 mm 4 mps 758 mmHg 47%
    13:00 +32°C° 0 mm 4 mps 758 mmHg 43%
    14:00 +32°C° 0 mm 4 mps 757 mmHg 43%
    15:00 +32°C° 0 mm 4 mps 757 mmHg 43%
    16:00 +32°C° 0 mm 4 mps 757 mmHg 43%
    17:00 +29°C° 0 mm 4 mps 757 mmHg 49%
    18:00 +28°C° 0 mm 3 mps 757 mmHg 55%
    19:00 +26°C° 0 mm 3 mps 757 mmHg 61%
    20:00 +25°C° 0 mm 3 mps 757 mmHg 63%
    21:00 +25°C° 0 mm 4 mps 757 mmHg 65%
    22:00 +23°C° 0 mm 4 mps 757 mmHg 67%
    23:00 +23°C° 0 mm 4 mps 757 mmHg 69%
    Show more